Group_ship,Cruise,JD_GMT,Date_DDMMYYYY,TIME_HH:MM:SS,Lat_dec_degree,Long_dec_degree,xCO2eq_ppm,xCO2a_ppm,Pres_Equi_hPa,Pres_sealevel_hPa,EqTemp_C,SST(TSG)_C,Sal(TSG)_Permil,Water_flow_l/min,Gasflow_IR_ml/min,Temp_IR_C,Pres_IR_hPa,Ship_heading_true_degree,Ship_speed_knot,Wind_dir_rel_degree,Wind_speed_rel_m/s,fCO2W@SST_uatm,Qcflag_water,fCO2a_uatm,Qcflag_air,dfCO2_uatm,Fluoro_ug/l,Wind_speed_true_m/s,Wind_dir_true_degree,Air_temp_C,Oxygen
AOML_Explorer,EX0724B,160.656,09062007,15:44:37,36.697,-69.229,360.91,-9.00,1008.61,1007.00,22.97,22.99,36.593,1.07,98.31,31.37,1008.61,135.80,18.10,9.00,18.01,348.60,2,-9.00,9,-9.00,0.04,8.98,154.88,21.72,234.23
AOML_Explorer,EX0724B,160.658,09062007,15:47:10,36.688,-69.218,360.69,-9.00,1008.46,1007.10,22.97,22.96,36.601,1.04,98.68,31.38,1008.46,135.70,18.20,12.00,18.53,348.05,2,-9.00,9,-9.00,0.04,9.65,159.88,21.65,234.25
AOML_Explorer,EX0724B,160.660,09062007,15:49:43,36.679,-69.207,360.23,-9.00,1008.46,1006.90,22.95,22.94,36.602,1.07,98.72,31.40,1008.46,135.80,18.20,14.00,18.53,347.47,2,-9.00,9,-9.00,0.04,9.76,163.70,21.72,234.39
AOML_Explorer,EX0724B,160.661,09062007,15:52:16,36.669,-69.196,360.14,-9.00,1008.40,1006.90,22.93,22.97,36.597,1.07,98.67,31.41,1008.40,135.60,18.20,12.00,17.50,348.06,2,-9.00,9,-9.00,0.04,8.64,161.30,21.72,234.40
AOML_Explorer,EX0724B,160.663,09062007,15:54:49,36.660,-69.185,359.72,-9.00,1008.41,1006.90,22.91,23.01,36.590,1.07,98.42,31.42,1008.41,135.40,18.20,12.00,18.53,348.51,2,-9.00,9,-9.00,0.04,9.61,160.28,21.67,234.19
AOML_Explorer,EX0724B,160.665,09062007,15:57:22,36.651,-69.173,359.25,-9.00,1008.32,1006.90,22.93,23.04,36.595,1.06,98.50,31.44,1008.32,135.80,18.30,14.00,18.01,348.31,2,-9.00,9,-9.00,0.04,9.28,165.22,21.67,234.10
AOML_Explorer,EX0724B,160.667,09062007,15:59:55,36.642,-69.162,358.96,-9.00,1008.32,1006.80,22.96,23.07,36.612,1.07,98.69,31.45,1008.32,135.80,18.30,11.00,18.01,347.87,2,-9.00,9,-9.00,0.04,8.99,158.85,21.71,234.10
AOML_Explorer,EX0724B,160.682,09062007,16:21:40,36.562,-69.066,358.52,-9.00,1008.43,1006.70,22.67,22.47,36.671,1.07,98.62,31.64,1008.43,136.10,18.70,10.00,16.47,343.30,2,-9.00,9,-9.00,0.05,7.24,160.68,21.65,235.75
AOML_Explorer,EX0724B,160.683,09062007,16:24:13,36.552,-69.054,358.25,-9.00,1008.24,1006.70,22.61,22.45,36.655,1.10,98.45,31.66,1008.24,136.30,18.70,6.00,16.47,343.61,2,-9.00,9,-9.00,0.05,7.09,151.63,21.65,235.87
AOML_Explorer,EX0724B,160.685,09062007,16:26:46,36.542,-69.043,357.96,-9.00,1008.27,1006.60,22.52,22.44,36.654,1.06,98.19,31.67,1008.27,136.60,18.60,10.00,17.50,344.46,2,-9.00,9,-9.00,0.04,8.31,158.21,21.63,235.91
AOML_Explorer,EX0724B,160.687,09062007,16:29:19,36.533,-69.032,357.33,-9.00,1008.22,1006.40,22.48,22.43,36.654,1.05,98.61,31.69,1008.22,136.40,18.70,7.00,16.47,344.22,2,-9.00,9,-9.00,0.05,7.11,154.46,21.67,236.01
AOML_Explorer,EX0724B,160.689,09062007,16:31:52,36.523,-69.021,356.84,-9.00,1008.15,1006.40,22.47,22.44,36.650,1.03,97.81,31.70,1008.15,136.40,18.70,9.00,16.47,344.16,2,-9.00,9,-9.00,0.05,7.27,159.30,21.67,235.98
AOML_Explorer,EX0724B,160.691,09062007,16:34:25,36.514,-69.009,356.02,-9.00,1008.16,1006.40,22.46,22.46,36.648,1.05,98.86,31.70,1008.16,136.30,18.60,10.00,16.47,343.79,2,-9.00,9,-9.00,0.04,7.31,160.92,21.67,236.26
AOML_Explorer,EX0724B,160.692,09062007,16:36:58,36.504,-68.998,355.16,-9.00,1008.12,1006.40,22.46,22.51,36.638,1.08,98.48,31.71,1008.12,137.90,18.50,9.00,15.96,343.47,2,-9.00,9,-9.00,0.04,6.80,161.08,21.69,236.30
AOML_Explorer,EX0724B,160.694,09062007,16:39:31,36.495,-68.987,354.76,-9.00,1008.10,1006.40,22.48,22.52,36.643,1.03,97.39,31.72,1008.10,137.80,18.50,7.00,16.47,343.09,2,-9.00,9,-9.00,0.04,7.16,154.54,21.69,236.30
AOML_Explorer,EX0724B,160.696,09062007,16:42:04,36.485,-68.977,354.62,-9.00,1007.98,1006.40,22.51,22.54,36.642,1.06,98.96,31.73,1007.98,137.90,18.50,10.00,15.96,342.78,2,-9.00,9,-9.00,0.04,6.91,163.57,21.69,236.14
AOML_Explorer,EX0724B,160.698,09062007,16:44:37,36.475,-68.966,354.46,-9.00,1008.03,1006.20,22.52,22.60,36.639,1.07,98.41,31.73,1008.03,138.10,18.50,8.00,16.47,343.24,2,-9.00,9,-9.00,0.04,7.25,157.36,21.68,236.27
AOML_Explorer,EX0724B,160.699,09062007,16:47:10,36.466,-68.955,354.37,-9.00,1007.82,1006.00,22.55,22.64,36.627,1.08,97.80,31.74,1007.82,137.30,18.50,6.00,15.96,343.30,2,-9.00,9,-9.00,0.04,6.59,153.12,21.65,236.53
AOML_Explorer,EX0724B,160.701,09062007,16:49:43,36.456,-68.944,354.30,-9.00,1007.82,1005.90,22.59,22.66,36.625,1.06,97.98,31.75,1007.82,137.90,18.60,3.00,15.96,342.85,2,-9.00,9,-9.00,0.04,6.47,145.87,21.70,236.34
AOML_Explorer,EX0724B,160.703,09062007,16:52:16,36.447,-68.933,353.79,-9.00,1007.79,1005.90,22.63,22.67,36.626,1.05,98.02,31.76,1007.79,138.20,18.70,0.00,16.47,341.95,2,-9.00,9,-9.00,0.04,6.91,138.28,21.63,236.42
AOML_Explorer,EX0724B,160.705,09062007,16:54:49,36.437,-68.922,353.66,-9.00,1007.75,1005.90,22.65,22.65,36.632,1.07,98.80,31.77,1007.75,138.10,18.70,4.00,16.99,341.25,2,-9.00,9,-9.00,0.04,7.46,147.85,21.68,236.13
AOML_Explorer,EX0724B,160.707,09062007,16:57:22,36.427,-68.911,353.59,-9.00,1007.71,1005.90,22.66,22.59,36.644,1.06,98.63,31.77,1007.71,138.60,18.80,5.00,16.47,340.22,2,-9.00,9,-9.00,0.04,6.92,149.83,21.70,236.39
AOML_Explorer,EX0724B,160.708,09062007,16:59:55,36.417,-68.900,353.66,-9.00,1007.77,1006.00,22.65,22.57,36.644,1.05,98.63,31.78,1007.77,138.30,18.70,4.00,16.47,340.21,2,-9.00,9,-9.00,0.04,6.95,147.28,21.72,236.60
AOML_Explorer,EX0724B,160.723,09062007,17:21:40,36.336,-68.806,355.92,-9.00,1007.55,1005.70,22.81,23.71,36.572,1.10,98.70,31.92,1007.55,136.10,18.10,11.00,15.96,356.06,2,-9.00,9,-9.00,0.04,7.10,163.75,21.87,231.91
AOML_Explorer,EX0724B,160.725,09062007,17:24:13,36.327,-68.795,356.85,-9.00,1007.57,1005.80,23.26,23.81,36.578,1.05,98.46,31.93,1007.57,135.90,18.10,9.00,15.96,351.66,2,-9.00,9,-9.00,0.05,6.98,159.65,21.79,230.97
AOML_Explorer,EX0724B,160.727,09062007,17:26:46,36.317,-68.784,360.38,-9.00,1007.50,1005.70,23.51,23.84,36.574,1.06,98.46,31.94,1007.50,136.30,18.20,7.00,15.96,351.80,2,-9.00,9,-9.00,0.04,6.82,155.06,21.77,230.79
AOML_Explorer,EX0724B,160.729,09062007,17:29:19,36.308,-68.773,363.28,-9.00,1007.48,1005.70,23.63,23.84,36.576,1.05,98.63,31.95,1007.48,136.20,18.30,8.00,16.47,352.78,2,-9.00,9,-9.00,0.04,7.33,156.01,21.77,230.84
AOML_Explorer,EX0724B,160.730,09062007,17:31:52,36.299,-68.762,364.57,-9.00,1007.47,1005.80,23.69,23.89,36.564,1.04,98.78,31.96,1007.47,136.30,18.30,6.00,16.47,353.94,2,-9.00,9,-9.00,0.04,7.23,151.14,21.73,230.68
AOML_Explorer,EX0724B,160.732,09062007,17:34:25,36.289,-68.751,364.70,-9.00,1007.46,1005.70,23.71,23.95,36.559,1.08,98.58,31.96,1007.46,136.40,18.50,15.00,16.47,354.56,2,-9.00,9,-9.00,0.04,7.74,170.85,21.81,230.95
AOML_Explorer,EX0724B,160.734,09062007,17:36:58,36.279,-68.740,364.76,-9.00,1007.58,1005.80,23.75,23.98,36.561,1.01,98.34,31.97,1007.58,137.10,19.40,16.00,16.47,354.43,2,-9.00,9,-9.00,0.03,7.35,174.02,21.78,230.69
AOML_Explorer,EX0724B,160.736,09062007,17:39:31,36.269,-68.728,364.41,-9.00,1007.49,1005.50,23.80,23.96,36.567,1.04,98.05,31.98,1007.49,137.60,19.90,8.00,16.47,353.18,2,-9.00,9,-9.00,0.04,6.42,156.76,21.77,230.59
AOML_Explorer,EX0724B,160.738,09062007,17:42:04,36.258,-68.716,364.18,-9.00,1007.48,1005.70,23.83,23.93,36.575,1.06,98.29,31.98,1007.48,137.60,20.20,12.00,16.99,351.91,2,-9.00,9,-9.00,0.04,7.04,165.19,21.77,230.51
AOML_Explorer,EX0724B,160.739,09062007,17:44:37,36.248,-68.705,364.22,-9.00,1007.37,1005.70,23.83,23.81,36.601,1.06,97.84,31.99,1007.37,137.90,20.40,14.00,16.99,350.23,2,-9.00,9,-9.00,0.03,7.15,169.67,21.72,230.32
AOML_Explorer,EX0724B,160.741,09062007,17:47:10,36.237,-68.693,364.24,-9.00,1007.32,1005.60,23.80,23.66,36.615,1.05,98.45,31.99,1007.32,137.90,20.40,9.00,16.47,348.58,2,-9.00,9,-9.00,0.04,6.21,158.46,21.72,230.84
AOML_Explorer,EX0724B,160.743,09062007,17:49:43,36.226,-68.681,364.22,-9.00,1007.34,1005.60,23.72,23.46,36.646,1.10,99.07,32.00,1007.34,138.60,20.50,8.00,17.50,346.87,2,-9.00,9,-9.00,0.03,7.10,154.18,21.71,231.17
AOML_Explorer,EX0724B,160.745,09062007,17:52:16,36.215,-68.669,363.43,-9.00,1007.47,1005.80,23.60,23.12,36.634,1.06,97.79,32.00,1007.47,138.80,20.50,13.00,16.47,343.21,2,-9.00,9,-9.00,0.04,6.44,168.06,21.73,232.42
AOML_Explorer,EX0724B,160.746,09062007,17:54:49,36.204,-68.657,362.34,-9.00,1007.42,1005.80,23.43,23.22,36.600,1.10,99.32,32.01,1007.42,137.60,20.70,8.00,16.99,346.07,2,-9.00,9,-9.00,0.04,6.44,153.04,21.65,232.88
AOML_Explorer,EX0724B,160.748,09062007,17:57:22,36.193,-68.645,360.50,-9.00,1007.45,1005.70,23.18,23.23,36.612,1.07,98.69,32.01,1007.45,138.50,20.90,9.00,16.99,348.11,2,-9.00,9,-9.00,0.04,6.44,156.01,21.59,233.16
AOML_Explorer,EX0724B,160.750,09062007,17:59:55,36.182,-68.633,358.34,-9.00,1007.52,1005.70,23.19,23.63,36.493,1.07,98.65,32.02,1007.52,137.70,20.80,8.00,16.47,351.63,2,-9.00,9,-9.00,0.04,5.96,154.34,21.57,232.01
AOML_Explorer,EX0724B,160.765,09062007,18:21:40,36.090,-68.532,366.54,-9.00,1007.77,1006.00,24.78,24.86,36.394,1.05,98.81,32.13,1007.77,139.40,20.60,9.00,15.96,353.50,2,-9.00,9,-9.00,0.04,5.54,154.99,21.31,228.62
AOML_Explorer,EX0724B,160.767,09062007,18:24:13,36.079,-68.520,367.33,-9.00,1007.75,1006.00,24.76,24.87,36.378,1.04,99.18,32.13,1007.75,138.10,20.70,8.00,14.93,354.63,2,-9.00,9,-9.00,0.04,4.44,152.95,21.34,228.53
AOML_Explorer,EX0724B,160.769,09062007,18:26:46,36.068,-68.508,367.57,-9.00,1007.93,1005.90,24.68,24.91,36.374,1.06,99.22,32.13,1007.93,139.20,20.80,7.00,15.96,356.82,2,-9.00,9,-9.00,0.05,5.35,147.72,21.30,228.50
AOML_Explorer,EX0724B,160.770,09062007,18:29:19,36.057,-68.497,367.26,-9.00,1007.84,1006.00,24.67,25.02,36.367,1.04,99.18,32.14,1007.84,139.70,20.80,7.00,14.93,358.17,2,-9.00,9,-9.00,0.05,4.29,147.44,21.36,228.31
AOML_Explorer,EX0724B,160.772,09062007,18:31:52,36.046,-68.485,367.04,-9.00,1007.90,1006.10,24.70,25.05,36.380,1.04,98.88,32.14,1007.90,136.90,20.80,6.00,15.96,358.02,2,-9.00,9,-9.00,0.05,5.30,137.87,21.30,228.17
AOML_Explorer,EX0724B,160.774,09062007,18:34:25,36.035,-68.472,366.67,-9.00,1007.87,1006.10,24.78,25.05,36.392,1.08,98.67,32.14,1007.87,136.50,20.90,12.00,15.96,356.44,2,-9.00,9,-9.00,0.04,5.45,155.36,21.34,228.12
AOML_Explorer,EX0724B,160.776,09062007,18:36:58,36.024,-68.460,366.83,-9.00,1007.87,1006.10,24.82,25.00,36.394,1.04,99.24,32.14,1007.87,135.70,20.90,7.00,15.44,355.29,2,-9.00,9,-9.00,0.04,4.71,138.81,21.40,228.21
AOML_Explorer,EX0724B,160.777,09062007,18:39:31,36.014,-68.447,366.98,-9.00,1007.88,1006.10,24.82,24.90,36.412,1.08,98.80,32.14,1007.88,136.00,21.00,7.00,15.44,353.90,2,-9.00,9,-9.00,0.04,4.67,138.56,21.33,228.60
AOML_Explorer,EX0724B,160.779,09062007,18:42:04,36.003,-68.434,367.15,-9.00,1007.92,1006.00,24.79,24.68,36.438,1.05,98.70,32.14,1007.92,136.40,21.10,6.00,16.47,351.36,2,-9.00,9,-9.00,0.04,5.64,135.19,21.24,229.11
AOML_Explorer,EX0724B,160.781,09062007,18:44:37,35.992,-68.422,367.24,-9.00,1007.93,1006.00,24.72,24.40,36.476,1.09,99.00,32.14,1007.93,136.20,21.20,4.00,15.44,348.65,2,-9.00,9,-9.00,0.04,4.64,126.88,21.23,229.28
AOML_Explorer,EX0724B,160.783,09062007,18:47:10,35.981,-68.409,367.29,-9.00,1007.89,1006.00,24.54,23.74,36.569,1.07,99.62,32.14,1007.89,135.90,21.20,5.00,15.96,342.01,2,-9.00,9,-9.00,0.04,5.13,131.36,21.20,229.40
AOML_Explorer,EX0724B,160.788,09062007,18:54:49,35.950,-68.370,366.10,-9.00,1007.77,1005.80,23.02,22.57,36.630,1.09,98.36,32.14,1007.77,133.90,20.70,9.00,15.44,346.67,2,-9.00,9,-9.00,0.05,4.95,150.40,21.18,231.69
AOML_Explorer,EX0724B,160.790,09062007,18:57:22,35.940,-68.357,365.86,-9.00,1007.73,1005.80,22.59,22.62,36.648,1.07,100.01,32.15,1007.73,135.10,20.90,9.00,15.44,353.47,2,-9.00,9,-9.00,0.04,4.84,150.86,21.15,232.16
AOML_Explorer,EX0724B,160.792,09062007,18:59:55,35.929,-68.345,362.71,-9.00,1007.53,1005.70,22.64,22.64,36.651,1.03,98.74,32.15,1007.53,135.00,21.00,6.00,15.44,349.83,2,-9.00,9,-9.00,0.04,4.71,140.40,21.15,232.52
AOML_Explorer,EX0724B,160.807,09062007,19:21:40,35.840,-68.234,361.40,-9.00,1007.31,1005.60,21.88,21.88,36.723,1.07,98.94,32.22,1007.31,133.90,21.00,6.00,15.96,348.97,2,-9.00,9,-9.00,0.05,5.26,142.82,21.06,237.96
AOML_Explorer,EX0724B,160.808,09062007,19:24:13,35.830,-68.221,362.28,-9.00,1007.34,1005.60,21.92,21.92,36.747,1.10,99.37,32.23,1007.34,134.20,21.00,10.00,16.47,349.84,2,-9.00,9,-9.00,0.05,5.94,153.23,21.08,238.11
AOML_Explorer,EX0724B,160.810,09062007,19:26:46,35.820,-68.208,362.16,-9.00,1007.50,1005.70,21.96,21.95,36.769,1.04,99.18,32.23,1007.50,133.90,21.00,10.00,15.96,349.44,2,-9.00,9,-9.00,0.04,5.50,154.95,21.07,238.77
AOML_Explorer,EX0724B,160.812,09062007,19:29:19,35.809,-68.195,362.45,-9.00,1007.33,1005.60,22.00,21.93,36.762,1.04,99.29,32.23,1007.33,134.10,20.90,6.00,15.96,348.96,2,-9.00,9,-9.00,0.05,5.34,142.60,21.06,238.93
AOML_Explorer,EX0724B,160.814,09062007,19:31:52,35.799,-68.182,364.93,-9.00,1007.81,1005.60,22.02,21.97,36.754,1.07,98.80,32.23,1007.81,136.80,20.90,3.00,15.44,351.74,2,-9.00,9,-9.00,0.04,4.74,136.11,21.07,238.85
AOML_Explorer,EX0724B,160.816,09062007,19:34:25,35.788,-68.170,365.86,-9.00,1007.88,1005.60,22.01,21.98,36.747,1.10,99.41,32.22,1007.88,136.30,20.90,3.00,14.93,353.05,2,-9.00,9,-9.00,0.04,4.27,133.83,21.08,238.87
AOML_Explorer,EX0724B,160.817,09062007,19:36:58,35.778,-68.158,365.78,-9.00,1007.89,1005.70,22.03,22.01,36.738,1.01,99.33,32.22,1007.89,136.40,20.80,2.00,15.44,353.01,2,-9.00,9,-9.00,0.04,4.77,131.09,21.03,238.84
AOML_Explorer,EX0724B,160.819,09062007,19:39:31,35.767,-68.145,365.47,-9.00,1007.96,1005.60,22.05,22.00,36.750,1.03,98.66,32.22,1007.96,136.40,20.70,3.00,15.44,352.37,2,-9.00,9,-9.00,0.05,4.82,134.00,21.05,239.05
AOML_Explorer,EX0724B,160.821,09062007,19:42:04,35.756,-68.133,365.51,-9.00,1007.93,1005.50,22.07,21.98,36.768,1.07,99.53,32.23,1007.93,136.70,20.70,3.00,14.93,351.67,2,-9.00,9,-9.00,0.05,4.26,133.29,21.05,239.22
AOML_Explorer,EX0724B,160.823,09062007,19:44:37,35.746,-68.121,366.04,-9.00,1007.84,1005.60,22.08,21.99,36.748,1.06,98.93,32.23,1007.84,137.00,20.70,3.00,15.44,352.17,2,-9.00,9,-9.00,0.05,4.78,135.17,21.06,239.40
AOML_Explorer,EX0724B,160.824,09062007,19:47:10,35.735,-68.108,367.35,-9.00,1007.73,1005.60,22.07,21.93,36.741,1.05,99.48,32.24,1007.73,137.00,20.80,2.00,14.93,352.65,2,-9.00,9,-9.00,0.05,4.28,129.40,21.05,239.48
AOML_Explorer,EX0724B,160.826,09062007,19:49:43,35.724,-68.096,367.71,-9.00,1007.96,1005.60,22.07,21.88,36.737,1.05,99.49,32.25,1007.96,137.50,20.80,5.00,14.93,352.47,2,-9.00,9,-9.00,0.05,4.23,139.41,21.06,239.36
AOML_Explorer,EX0724B,160.828,09062007,19:52:16,35.713,-68.084,365.77,-9.00,1007.85,1005.60,22.02,21.72,36.746,1.05,98.66,32.26,1007.85,136.90,20.80,6.00,14.93,348.92,2,-9.00,9,-9.00,0.05,4.26,142.70,21.06,239.65
AOML_Explorer,EX0724B,160.830,09062007,19:54:49,35.702,-68.072,364.44,-9.00,1007.79,1005.50,21.97,21.61,36.711,1.04,98.96,32.27,1007.79,137.60,20.80,1.00,15.44,346.92,2,-9.00,9,-9.00,0.06,4.79,127.75,21.05,240.60
AOML_Explorer,EX0724B,160.832,09062007,19:57:22,35.691,-68.059,364.02,-9.00,1007.78,1005.50,21.86,21.52,36.702,1.08,98.75,32.28,1007.78,136.80,20.80,1.00,15.44,346.80,2,-9.00,9,-9.00,0.06,4.77,126.00,21.05,241.40
AOML_Explorer,EX0724B,160.833,09062007,19:59:55,35.681,-68.047,364.57,-9.00,1007.81,1005.60,21.76,21.48,36.693,1.02,98.44,32.29,1007.81,137.50,20.90,0.00,15.44,348.18,2,-9.00,9,-9.00,0.06,4.78,122.91,21.02,241.44
AOML_Explorer,EX0724B,160.848,09062007,20:21:40,35.588,-67.941,362.56,-9.00,1007.36,1005.40,21.71,21.69,36.714,1.07,98.03,32.42,1007.36,136.50,20.90,356.00,14.93,349.90,2,-9.00,9,-9.00,0.06,4.50,111.22,21.07,240.33
AOML_Explorer,EX0724B,160.850,09062007,20:24:13,35.577,-67.929,363.20,-9.00,1007.46,1005.60,21.73,21.64,36.675,1.09,99.38,32.43,1007.46,136.30,20.90,356.00,15.44,349.54,2,-9.00,9,-9.00,0.06,4.94,112.36,21.10,241.27
AOML_Explorer,EX0724B,160.852,09062007,20:26:46,35.566,-67.916,363.28,-9.00,1007.54,1005.50,21.78,21.62,36.679,1.07,99.52,32.44,1007.54,136.10,20.90,355.00,14.93,348.69,2,-9.00,9,-9.00,0.05,4.51,107.68,21.11,241.50
AOML_Explorer,EX0724B,160.854,09062007,20:29:19,35.556,-67.904,363.68,-9.00,1007.53,1005.50,21.75,21.59,36.664,1.08,98.26,32.44,1007.53,135.40,20.90,356.00,14.93,349.09,2,-9.00,9,-9.00,0.05,4.47,110.35,21.07,241.81
AOML_Explorer,EX0724B,160.855,09062007,20:31:52,35.545,-67.891,363.29,-9.00,1007.56,1005.60,21.73,21.57,36.653,1.08,99.26,32.44,1007.56,136.30,20.90,355.00,15.44,348.66,2,-9.00,9,-9.00,0.06,5.00,110.54,21.06,242.21
AOML_Explorer,EX0724B,160.857,09062007,20:34:25,35.534,-67.879,363.01,-9.00,1007.59,1005.60,21.71,21.51,36.604,1.08,99.01,32.45,1007.59,136.30,20.90,355.00,15.44,347.86,2,-9.00,9,-9.00,0.07,4.99,111.06,21.05,243.18
AOML_Explorer,EX0724B,160.859,09062007,20:36:58,35.524,-67.866,362.63,-9.00,1007.61,1005.50,21.69,21.47,36.576,1.08,98.92,32.45,1007.61,135.10,20.80,352.00,15.44,347.31,2,-9.00,9,-9.00,0.08,5.31,103.24,21.05,243.76
AOML_Explorer,EX0724B,160.861,09062007,20:39:31,35.513,-67.853,362.62,-9.00,1007.70,1005.50,21.64,21.42,36.559,1.08,98.41,32.44,1007.70,135.20,20.80,350.00,15.44,347.26,2,-9.00,9,-9.00,0.08,5.53,97.70,21.06,244.33
AOML_Explorer,EX0724B,160.863,09062007,20:42:04,35.503,-67.841,363.15,-9.00,1007.60,1005.30,21.61,21.45,36.568,1.05,98.93,32.44,1007.60,135.00,20.80,349.00,14.93,348.57,2,-9.00,9,-9.00,0.08,5.09,93.75,21.06,244.07
AOML_Explorer,EX0724B,160.864,09062007,20:44:37,35.492,-67.828,363.66,-9.00,1007.54,1005.30,21.57,21.43,36.558,1.04,99.27,32.44,1007.54,135.00,20.80,351.00,15.44,349.25,2,-9.00,9,-9.00,0.08,5.32,101.57,21.05,243.90
AOML_Explorer,EX0724B,160.866,09062007,20:47:10,35.481,-67.815,363.75,-9.00,1007.52,1005.20,21.57,21.41,36.542,1.04,99.18,32.44,1007.52,137.00,20.80,350.00,15.44,349.19,2,-9.00,9,-9.00,0.09,5.39,101.30,21.06,243.39
AOML_Explorer,EX0724B,160.868,09062007,20:49:43,35.470,-67.803,363.37,-9.00,1007.48,1005.20,21.56,21.47,36.557,1.07,99.54,32.43,1007.48,136.50,20.80,346.00,14.41,349.78,2,-9.00,9,-9.00,0.07,4.99,86.20,21.04,243.65
AOML_Explorer,EX0724B,160.870,09062007,20:52:16,35.460,-67.790,363.33,-9.00,1007.50,1005.20,21.55,21.41,36.582,1.03,99.27,32.43,1007.50,135.90,20.80,347.00,15.44,349.09,2,-9.00,9,-9.00,0.07,5.66,95.07,21.06,243.53
AOML_Explorer,EX0724B,160.871,09062007,20:54:49,35.449,-67.778,363.16,-9.00,1007.56,1005.20,21.58,21.40,36.575,1.00,98.97,32.43,1007.56,136.00,20.60,347.00,15.44,348.38,2,-9.00,9,-9.00,0.07,5.74,95.13,21.08,243.34
AOML_Explorer,EX0724B,160.873,09062007,20:57:22,35.439,-67.766,363.80,-9.00,1007.46,1005.20,21.55,21.39,36.562,1.02,98.78,32.43,1007.46,135.30,20.70,348.00,14.93,349.18,2,-9.00,9,-9.00,0.08,5.10,95.30,21.08,243.46
AOML_Explorer,EX0724B,160.875,09062007,20:59:55,35.428,-67.753,364.53,-9.00,1007.37,1005.10,21.53,21.41,36.584,1.07,98.79,32.42,1007.37,135.60,20.70,349.00,15.44,350.35,2,-9.00,9,-9.00,0.07,5.47,100.39,21.06,243.43
AOML_Explorer,EX0724B,160.890,09062007,21:21:40,35.338,-67.647,361.35,-9.00,1007.14,1004.60,21.50,21.39,36.581,1.02,99.12,32.48,1007.14,135.80,20.70,340.00,15.44,347.37,2,-9.00,9,-9.00,0.07,6.46,83.32,21.04,243.10
AOML_Explorer,EX0724B,160.892,09062007,21:24:13,35.328,-67.634,361.36,-9.00,1007.17,1004.60,21.51,21.37,36.616,1.03,98.80,32.48,1007.17,136.00,20.60,338.00,15.44,347.19,2,-9.00,9,-9.00,0.06,6.70,80.98,21.05,243.12
AOML_Explorer,EX0724B,160.894,09062007,21:26:46,35.317,-67.622,361.07,-9.00,1007.06,1004.40,21.51,21.38,36.632,1.05,98.78,32.48,1007.06,135.60,20.60,339.00,15.44,346.91,2,-9.00,9,-9.00,0.06,6.60,82.79,21.04,242.85
AOML_Explorer,EX0724B,160.895,09062007,21:29:19,35.307,-67.609,360.67,-9.00,1007.08,1004.70,21.51,21.42,36.635,1.05,98.04,32.48,1007.08,136.10,20.60,342.00,15.44,347.12,2,-9.00,9,-9.00,0.06,6.19,89.22,21.05,242.28
AOML_Explorer,EX0724B,160.897,09062007,21:31:52,35.297,-67.597,360.06,-9.00,1006.94,1004.40,21.51,21.44,36.657,1.01,98.71,32.48,1006.94,136.20,20.60,340.00,15.96,346.77,2,-9.00,9,-9.00,0.05,6.87,87.13,21.01,242.04
AOML_Explorer,EX0724B,160.899,09062007,21:34:25,35.286,-67.585,359.81,-9.00,1007.12,1004.60,21.54,21.44,36.679,1.01,98.55,32.47,1007.12,135.70,20.60,344.00,15.44,346.17,2,-9.00,9,-9.00,0.06,5.95,93.37,21.06,242.13
AOML_Explorer,EX0724B,160.901,09062007,21:36:58,35.276,-67.572,359.66,-9.00,1006.88,1004.40,21.55,21.40,36.669,1.01,98.95,32.44,1006.88,135.80,20.60,340.00,15.44,345.07,2,-9.00,9,-9.00,0.05,6.39,84.92,21.06,242.48
AOML_Explorer,EX0724B,160.902,09062007,21:39:31,35.265,-67.560,359.77,-9.00,1006.97,1004.20,21.56,21.44,36.661,1.04,99.38,32.43,1006.97,137.00,20.60,337.00,15.96,345.72,2,-9.00,9,-9.00,0.06,7.30,83.07,21.06,242.08
AOML_Explorer,EX0724B,160.904,09062007,21:42:04,35.254,-67.548,359.95,-9.00,1006.83,1004.20,21.54,21.49,36.652,0.98,99.39,32.41,1006.83,136.70,20.60,335.00,16.47,346.89,2,-9.00,9,-9.00,0.06,8.01,81.01,21.07,242.04
AOML_Explorer,EX0724B,160.906,09062007,21:44:37,35.244,-67.536,359.94,-9.00,1006.97,1004.10,21.55,21.55,36.657,1.01,98.91,32.40,1006.97,136.50,20.60,335.00,15.44,347.60,2,-9.00,9,-9.00,0.06,7.16,76.52,21.07,241.62
AOML_Explorer,EX0724B,160.908,09062007,21:47:10,35.233,-67.524,359.48,-9.00,1006.87,1004.40,21.59,21.53,36.663,0.99,98.98,32.40,1006.87,137.20,20.70,335.00,15.96,346.23,2,-9.00,9,-9.00,0.06,7.58,78.81,21.09,241.62
AOML_Explorer,EX0724B,160.910,09062007,21:49:43,35.223,-67.512,359.16,-9.00,1007.01,1004.10,21.64,21.54,36.667,1.01,98.72,32.39,1007.01,137.00,20.70,334.00,15.96,345.47,2,-9.00,9,-9.00,0.07,7.81,76.53,21.07,241.55
AOML_Explorer,EX0724B,160.911,09062007,21:52:16,35.212,-67.499,359.30,-9.00,1007.05,1003.90,21.64,21.62,36.687,1.05,99.18,32.39,1007.05,136.70,20.60,331.00,15.96,346.69,2,-9.00,9,-9.00,0.07,8.26,72.52,21.07,241.29
AOML_Explorer,EX0724B,160.913,09062007,21:54:49,35.201,-67.487,359.86,-9.00,1007.09,1004.00,21.65,21.62,36.689,1.02,98.85,32.39,1007.09,137.00,20.70,334.00,15.96,347.05,2,-9.00,9,-9.00,0.06,7.75,76.94,21.05,241.18
AOML_Explorer,EX0724B,160.915,09062007,21:57:22,35.191,-67.475,360.66,-9.00,1007.05,1003.80,21.70,21.64,36.694,1.06,98.85,32.39,1007.05,136.60,20.70,328.00,15.96,347.27,2,-9.00,9,-9.00,0.06,8.76,67.45,21.02,241.00
AOML_Explorer,EX0724B,160.917,09062007,21:59:55,35.180,-67.463,361.15,-9.00,1007.15,1003.70,21.72,21.64,36.704,1.00,99.72,32.39,1007.15,136.50,20.60,330.00,15.96,347.60,2,-9.00,9,-9.00,0.06,8.41,71.08,20.97,240.93
AOML_Explorer,EX0724B,160.932,09062007,22:21:40,35.090,-67.358,362.07,-9.00,1006.86,1003.80,21.74,22.03,36.634,0.98,99.07,32.44,1006.86,136.60,20.60,332.00,16.99,353.65,2,-9.00,9,-9.00,0.06,8.92,78.41,20.75,238.49
AOML_Explorer,EX0724B,160.933,09062007,22:24:13,35.080,-67.346,361.38,-9.00,1006.84,1003.70,21.86,22.05,36.638,0.98,98.77,32.45,1006.84,136.10,20.60,329.00,16.99,351.43,2,-9.00,9,-9.00,0.06,9.33,73.38,20.74,238.27
AOML_Explorer,EX0724B,160.935,09062007,22:26:46,35.069,-67.334,360.00,-9.00,1006.86,1003.60,22.03,22.26,36.593,1.06,98.97,32.45,1006.86,136.80,20.60,330.00,15.96,350.59,2,-9.00,9,-9.00,0.07,8.43,71.37,20.75,237.57
AOML_Explorer,EX0724B,160.937,09062007,22:29:19,35.058,-67.322,359.94,-9.00,1006.72,1003.60,22.08,22.39,36.593,1.01,99.49,32.44,1006.72,137.10,20.60,329.00,16.99,351.67,2,-9.00,9,-9.00,0.06,9.39,74.02,20.77,237.01
AOML_Explorer,EX0724B,160.939,09062007,22:31:52,35.048,-67.310,359.95,-9.00,1006.76,1003.40,22.22,22.56,36.557,0.98,98.53,32.44,1006.76,136.70,20.50,327.00,18.01,352.02,2,-9.00,9,-9.00,0.06,10.50,74.15,20.71,236.41
AOML_Explorer,EX0724B,160.941,09062007,22:34:25,35.037,-67.298,359.45,-9.00,1006.78,1003.10,22.36,22.73,36.578,1.00,98.46,32.44,1006.78,137.00,20.60,325.00,17.50,351.74,2,-9.00,9,-9.00,0.06,10.54,69.17,20.70,235.43
AOML_Explorer,EX0724B,160.942,09062007,22:36:58,35.026,-67.286,359.13,-9.00,1006.78,1003.70,22.50,22.70,36.564,1.00,98.70,32.43,1006.78,136.80,20.70,328.00,16.99,349.05,2,-9.00,9,-9.00,0.06,9.62,71.94,20.70,235.02
AOML_Explorer,EX0724B,160.944,09062007,22:39:31,35.016,-67.274,358.54,-9.00,1006.85,1003.30,22.65,22.73,36.538,1.00,99.16,32.43,1006.85,136.90,20.70,327.00,17.50,346.73,2,-9.00,9,-9.00,0.06,10.16,72.01,20.67,235.16
AOML_Explorer,EX0724B,160.946,09062007,22:42:04,35.005,-67.262,358.23,-9.00,1006.86,1003.50,22.67,22.88,36.553,1.04,98.86,32.42,1006.86,137.00,20.80,330.00,16.99,348.18,2,-9.00,9,-9.00,0.06,9.14,74.86,20.70,234.70